Terminal Aerodrome Forecast
Issued by NWS

Home | Current Version | Previous Version | Text Only | Print | Product List | Glossary On
Versions: 1 2 3 4 5 6 7 8 9 10 11 12 13 14 15 16 17 18 19
000
FTUS41 KCAR 270500 RRA
TAFPQI
TAF
KPQI 270549Z 2706/2806 21006KT P6SM SCT250
     FM271300 23006KT P6SM -SHRA VCTS BKN020CB
     FM271700 24010KT P6SM VCTS BKN050CB
     FM272300 30006KT P6SM BKN050
      AMD LTD TO CLD VIS AND WIND=

USA.gov is the U.S. government's official web portal to all federal, state and local government web resources and services.